Location: Unspecified
(0.0000°N, 0.0000°E)
Time: 11:06:33
(UTC+00:00)

ARIANE 6 FM1 Upper Stage - Pass Details

Date: 24 February 2026
Orbit: 523 x 607 km, 62.0° (Epoch: 05 March)

Event Time Altitude Azimuth Distance (km) Brightness Sun altitude
Rises 19:26:02 0° 323° (NW) 2,673 6.5 -18.0°
Reaches altitude 10° 19:28:17 10° 316° (NW) 1,797 5.7 -18.5°
Maximum altitude 19:32:05 41° 245° (WSW) 811 4.0 -19.5°
Drops below altitude 10° 19:36:02 10° 174° (S) 1,853 5.3 -20.4°
Sets 19:38:23 0° 167° (SSE) 2,768 6.2 -21.0°
